Retour au catalogue

COSMOS 1275 DEB

ActifPO
NORAD 12758·DEBRIS·🇷🇺 Russia

Lancé Jun 4, 1981 depuis Plesetsk Cosmodrome

Loading…

Prochains Passages (prochaines 24 heures)

TLE

FraisSource: Space-Track

Époque: Sep 14, 2026, 08:04 UTC

1 12758U 81053DB  26257.33626640  .00000415  00000-0  36593-3 0  9991
2 12758  82.8646  18.5111 0055252 310.3674  77.8178 13.82370809263986

Suivez COSMOS 1275 DEB en temps réel avec AllMySat

Download on the App Store